Overview Statistics Trail Chart Weather Telemetry Raw packets
 

This is the latest recevied weather packets stored in our database for station/object 4S6DRJ-13. If no packets are shown the sender has not sent any weather packets the latest 10 day(s).

<< 331 332 333 334 335 336 337 >>
Time Temp. Humidity Pressure Rain* Wind** Luminosity Snow
1787973274 29.44° C 80% 1011.1 hPa 0 mm 1.34 m/s, 206° 172 W/m² -
1787973213 29.44° C 80% 1010.8 hPa 0 mm 1.79 m/s, 245° 213 W/m² -
1787973152 29.44° C 80% 1011.1 hPa 0 mm 1.79 m/s, 150° 716 W/m² -
1787973091 29.44° C 80% 1010.9 hPa 0 mm 2.24 m/s, 290° 698 W/m² -
1787973030 29.44° C 80% 1010.9 hPa 0 mm 0.45 m/s, 122° 230 W/m² -
1787972969 29.44° C 80% 1011 hPa 0 mm 3.13 m/s, 238° 181 W/m² -
1787972908 29.44° C 80% 1010.9 hPa 0 mm 1.34 m/s, 153° 174 W/m² -
1787972847 28.89° C 81% 1010.9 hPa 0 mm 0 m/s 347 W/m² -
1787972786 28.89° C 81% 1010.7 hPa 0 mm 2.24 m/s, 250° 355 W/m² -
1787972725 28.89° C 81% 1010.9 hPa 0 mm 0.89 m/s, 283° 359 W/m² -
1787972674 28.89° C 81% 1011 hPa 0 mm 0.89 m/s, 291° 286 W/m² -
1787972603 28.89° C 81% 1010.9 hPa 0 mm 1.79 m/s, 235° 569 W/m² -
1787972542 28.89° C 81% 1010.9 hPa 0 mm 1.79 m/s, 228° 624 W/m² -
1787972481 28.89° C 81% 1010.8 hPa 0 mm 1.79 m/s, 265° 203 W/m² -
1787972421 28.89° C 81% 1010.9 hPa 0 mm 2.24 m/s, 228° 227 W/m² -
1787972359 28.89° C 80% 1010.7 hPa 0 mm 1.34 m/s, 198° 179 W/m² -
1787972298 28.89° C 80% 1010.8 hPa 0 mm 1.34 m/s, 269° 159 W/m² -
1787972237 28.89° C 81% 1010.7 hPa 0 mm 0.89 m/s, 269° 148 W/m² -
1787972176 29.44° C 80% 1010.8 hPa 0 mm 1.34 m/s, 229° 148 W/m² -
1787972115 29.44° C 80% 1010.9 hPa 0 mm 1.79 m/s, 268° 173 W/m² -
1787972054 29.44° C 80% 1010.7 hPa 0 mm 2.24 m/s, 224° 191 W/m² -
1787971993 29.44° C 80% 1010.5 hPa 0 mm 0.89 m/s, 186° 222 W/m² -
1787971932 29.44° C 81% 1010.6 hPa 0 mm 0.45 m/s, 178° 243 W/m² -
1787971871 28.89° C 81% 1010.6 hPa 0 mm 0 m/s 241 W/m² -
1787971810 28.89° C 81% 1010.7 hPa 0 mm 1.34 m/s, 157° 311 W/m² -

* Rain latest hour (hover to see other rain measurements)
** Current wind speed in m/s (hover to see current wind gust speed)